Location: Arthez
(43.0833°N, 0.2500°W)
Time: 03:29:14
(UTC+00:00)

NOSS 8 (E) - Pass Details

Date: 23 October 2021
Orbit: 374 x 1788 km, 63.3° (Epoch: 27 November)

Event Time Altitude Azimuth Distance (km) Brightness Sun altitude
Rises 17:59:02 0° 216° (SW) 2,734 9.1 -10.4°
Reaches altitude 10° 18:01:28 10° 217° (SW) 1,682 7.9 -10.9°
Maximum altitude 18:05:03 84° 305° (NW) 427 4.3 -11.5°
Enters shadow 18:07:58 11° 35° (NE) 1,380 6.5 -12.1°
